Regional Weather Roundup
Issued by NWS

Home | Current Version | Previous Version | Graphics & Text | Print | Product List | Glossary On
Versions: 1 2 3 4 5 6 7 8 9 10 11 12 13 14 15 16 17 18 19 20 21 22 23 24 25 26 27 28 29 30 31 32 33 34 35 36 37 38 39 40 41 42 43 44 45 46 47 48 49 50
000
ASUS43 KTOP 030108
RWRKS

WEATHER ROUNDUP FOR KANSAS
NATIONAL WEATHER SERVICE GOODLAND KS
800 PM CDT THU JUL 02 2015

NOTE:  "FAIR" INDICATES FEW OR NO CLOUDS BELOW 12,000 FEET WITH NO
SIGNIFICANT WEATHER AND/OR OBSTRUCTIONS TO VISIBILITY.

KSZ001>006-013>018-027>032-041>047-030200-
NORTHWEST KANSAS

CITY           SKY/WX    TMP DP  RH WIND       PRES   REMARKS
GOODLAND       SUNNY     82  54  37 N13       30.04S
HAYS           MOSUNNY   84  63  48 W5        29.91S
HILL CITY      LGT RAIN  86  61  42 N14       29.94R
RUSSELL        SUNNY     83  64  52 W5        29.89F
$$

KSZ061>065-074>080-084>089-030200-
SOUTHWEST KANSAS

CITY           SKY/WX    TMP DP  RH WIND       PRES   REMARKS
DODGE CITY     SUNNY     81  62  52 NE3       29.97R
ELKHART          N/A     83  61  47 NE15        N/A
GARDEN CITY    SUNNY     82  66  58 SE3       29.98R
GREAT BEND     SUNNY     81  64  57 CALM      29.93R
LIBERAL        PTSUNNY   73  64  73 E14       30.03R
PRATT          CLEAR     79  64  61 W5        29.95R
$$

KSZ066>073-081>083-090>101-030200-
SOUTHEAST KANSAS

CITY           SKY/WX    TMP DP  RH WIND       PRES   REMARKS
CHANUTE        CLOUDY    78  72  81 NE3       29.86F
COFFEYVILLE    CLOUDY    81  69  67 N7        29.86F
HUTCHINSON     CLEAR     81  67  62 NW5       29.90R
MEDICINE LODGE   N/A     83  64  52 CALM      29.91R
NEWTON         CLEAR     75  64  69 NW5       29.93R
PARSONS        CLOUDY    79  73  82 N3        29.88F
WICHITA INTL   CLEAR     79  67  66 NW6       29.89R
WICHITA JABRA  CLEAR     76  68  76 W3        29.89R
WICHITA MCCONL CLEAR     77  67  71 NW3       29.89R
WINFIELD       PTCLDY    79  66  64 NE3       29.90R
$$

KSZ007>012-019>026-033>040-048>060-102>105-030200-
NORTHEAST KANSAS

CITY           SKY/WX    TMP DP  RH WIND       PRES   REMARKS
CONCORDIA      PTCLDY    72  65  78 NE12G18   29.90R
EMPORIA        PTCLDY    80  68  66 CALM      29.86F
LAWRENCE       CLOUDY    72  67  84 E5        29.89F HAZE
MANHATTAN      MOCLDY    71  69  93 CALM      29.87F
MARYSVILLE     CLOUDY    72  70  94 E9        29.89F
OLATHE IND     CLOUDY    72  67  84 E9        29.90F
OLATHE EXE     CLOUDY    71  67  87 E7        29.89F
SALINA         CLEAR     83  67  58 W7        29.87F
TOPEKA BILLARD CLOUDY    73  69  87 NE8       29.89S
TOPEKA FORBES  LGT RAIN  74  69  85 E7        29.88F
$$


USA.gov is the U.S. government's official web portal to all federal, state and local government web resources and services.